Terug naar catalogus

STARLINK-35190

ActiefCommunicatieSSO
NORAD 65663·PAYLOAD·🇺🇸 United States

Gelanceerd Sep 19, 2025 vanaf Vandenberg Space Force Base

Loading…

Volgende Passages (komende 24 uur)

TLE

VersSource: CelesTrak SupGP

Epoch: Sep 14, 2026, 21:24 UTC

1 65663C 25211M   26257.89215278  .00014151  00000+0  43972-3 0  2577
2 65663  97.2830 298.2420 0001266  86.4836  14.6207 15.33399350    16

Volg STARLINK-35190 in realtime met AllMySat

Download on the App Store